TimeEDT,TemperatureF,Dew PointF,Humidity,Sea Level PressureIn,VisibilityMPH,Wind Direction,Wind SpeedMPH,Gust SpeedMPH,PrecipitationIn,Events,Conditions,WindDirDegrees,DateUTC
12:53 AM,50.0,42.1,74,30.13,10.0,SE,3.5,-,N/A,,Overcast,140,2013-09-23 04:53:00
1:53 AM,50.0,42.1,74,30.13,10.0,NNE,3.5,-,N/A,,Overcast,30,2013-09-23 05:53:00
2:53 AM,50.0,43.0,77,30.14,10.0,Calm,Calm,-,N/A,,Overcast,0,2013-09-23 06:53:00
3:53 AM,50.0,44.1,80,30.14,10.0,North,3.5,-,N/A,,Overcast,360,2013-09-23 07:53:00
4:53 AM,50.0,44.1,80,30.15,10.0,Calm,Calm,-,N/A,,Overcast,0,2013-09-23 08:53:00
5:53 AM,50.0,44.1,80,30.15,10.0,Calm,Calm,-,N/A,,Overcast,0,2013-09-23 09:53:00
6:53 AM,50.0,45.0,83,30.17,10.0,Calm,Calm,-,N/A,,Overcast,0,2013-09-23 10:53:00
7:53 AM,50.0,42.1,74,30.20,10.0,Calm,Calm,-,N/A,,Overcast,0,2013-09-23 11:53:00
8:53 AM,51.1,39.9,66,30.21,10.0,Calm,Calm,-,N/A,,Overcast,0,2013-09-23 12:53:00
9:53 AM,52.0,41.0,66,30.22,10.0,Calm,Calm,-,N/A,,Overcast,0,2013-09-23 13:53:00
10:53 AM,54.0,39.9,59,30.22,10.0,ESE,3.5,-,N/A,,Overcast,110,2013-09-23 14:53:00
12:53 PM,57.9,39.9,51,30.21,10.0,ESE,8.1,-,N/A,,Overcast,110,2013-09-23 16:53:00
1:53 PM,59.0,39.9,49,30.21,10.0,Calm,Calm,-,N/A,,Clear,0,2013-09-23 17:53:00
2:53 PM,61.0,39.9,46,30.19,10.0,Calm,Calm,-,N/A,,Scattered Clouds,0,2013-09-23 18:53:00
3:53 PM,63.0,42.1,46,30.17,10.0,ENE,8.1,-,N/A,,Partly Cloudy,60,2013-09-23 19:53:00
4:53 PM,63.0,43.0,48,30.17,10.0,East,10.4,-,N/A,,Partly Cloudy,90,2013-09-23 20:53:00
5:53 PM,61.0,43.0,52,30.16,10.0,East,9.2,-,N/A,,Clear,90,2013-09-23 21:53:00
6:53 PM,59.0,44.1,58,30.16,10.0,ENE,5.8,-,N/A,,Partly Cloudy,70,2013-09-23 22:53:00
7:53 PM,55.0,44.1,67,30.17,10.0,East,3.5,-,N/A,,Clear,80,2013-09-23 23:53:00
8:53 PM,52.0,44.1,74,30.17,10.0,Calm,Calm,-,N/A,,Clear,0,2013-09-24 00:53:00
9:53 PM,52.0,44.1,74,30.17,10.0,South,3.5,-,N/A,,Clear,180,2013-09-24 01:53:00
10:53 PM,48.9,44.1,83,30.17,10.0,SSE,3.5,-,N/A,,Clear,150,2013-09-24 02:53:00
11:53 PM,50.0,44.1,80,30.17,10.0,Calm,Calm,-,N/A,,Clear,0,2013-09-24 03:53:00